| time (UTC) | temp F | wind direction | speed MPH | gust MPH | rain 1hr in | rain 24hr in | rain mn in | humidity % | barometer mb |
| 20260903161548 | 91 | 265 | 0.0 | 3.0 | 0.00 | 0.00 | 0.00 | 66 | 1013.5 |
| 20260903160117 | 90 | 0 | 1.0 | 6.0 | 0.00 | 0.00 | 0.00 | 68 | 1013.3 |
| 20260903154608 | 88 | 6 | 1.0 | 8.0 | 0.00 | 0.00 | 0.00 | 69 | 1013.2 |
| 20260903153055 | 88 | 3 | 2.0 | 5.0 | 0.00 | 0.00 | 0.00 | 70 | 1013.3 |
| 20260903151549 | 87 | 5 | 1.0 | 7.0 | 0.00 | 0.00 | 0.00 | 72 | 1013.3 |
| 20260903150047 | 87 | 0 | 1.0 | 7.0 | 0.00 | 0.00 | 0.00 | 74 | 1013.3 |
| 20260903144604 | 86 | 331 | 1.0 | 5.0 | 0.00 | 0.00 | 0.00 | 75 | 1013.2 |
| 20260903143101 | 85 | 314 | 1.0 | 5.0 | 0.00 | 0.00 | 0.00 | 76 | 1013.3 |
| 20260903141603 | 85 | 24 | 1.0 | 5.0 | 0.00 | 0.00 | 0.00 | 78 | 1013.2 |
| 20260903140107 | 84 | 287 | 1.0 | 6.0 | 0.00 | 0.00 | 0.00 | 79 | 1013.3 |
| 20260903134559 | 83 | 0 | 0.0 | 3.0 | 0.00 | 0.00 | 0.00 | 81 | 1013.4 |
| 20260903133046 | 83 | 0 | 0.0 | 2.0 | 0.00 | 0.00 | 0.00 | 82 | 1013.3 |
| 20260903131553 | 82 | 27 | 0.0 | 5.0 | 0.00 | 0.00 | 0.00 | 83 | 1013.4 |
| 20260903130049 | 82 | 10 | 0.0 | 5.0 | 0.00 | 0.00 | 0.00 | 84 | 1013.4 |
| 20260903124555 | 81 | 0 | 0.0 | 1.0 | 0.00 | 0.00 | 0.00 | 85 | 1013.2 |
| 20260903123057 | 81 | 0 | 0.0 | 1.0 | 0.00 | 0.00 | 0.00 | 85 | 1013.1 |
| 20260903121549 | 81 | 0 | 0.0 | 1.0 | 0.00 | 0.00 | 0.00 | 85 | 1012.9 |
| 20260903120104 | 81 | 0 | 0.0 | 2.0 | 0.00 | 0.00 | 0.00 | 85 | 1012.9 |
| 20260903114603 | 81 | 0 | 0.0 | 1.0 | 0.00 | 0.00 | 0.00 | 85 | 1012.9 |
| 20260903113053 | 81 | 0 | 0.0 | 2.0 | 0.00 | 0.00 | 0.00 | 85 | 1012.6 |
| 20260903111549 | 81 | 0 | 0.0 | 1.0 | 0.00 | 0.00 | 0.00 | 86 | 1012.5 |
| 20260903110100 | 81 | 250 | 0.0 | 1.0 | 0.00 | 0.00 | 0.00 | 86 | 1012.7 |
| 20260903104559 | 81 | 65 | 0.0 | 4.0 | 0.00 | 0.00 | 0.00 | 86 | 1012.6 |
| 20260903103057 | 81 | 0 | 0.0 | 3.0 | 0.00 | 0.00 | 0.00 | 86 | 1012.4 |
| 20260903101556 | 81 | 0 | 0.0 | 1.0 | 0.00 | 0.00 | 0.00 | 86 | 1012.6 |
| 20260903100059 | 81 | 345 | 0.0 | 3.0 | 0.00 | 0.00 | 0.00 | 86 | 1012.5 |
| 20260903094605 | 81 | 223 | 0.0 | 2.0 | 0.00 | 0.00 | 0.00 | 86 | 1012.5 |
| 20260903093106 | 81 | 0 | 0.0 | 1.0 | 0.00 | 0.00 | 0.00 | 85 | 1012.6 |
| 20260903091600 | 81 | 0 | 0.0 | 1.0 | 0.00 | 0.00 | 0.00 | 85 | 1012.7 |
| 20260903090100 | 82 | 0 | 0.0 | 1.0 | 0.00 | 0.00 | 0.00 | 85 | 1012.7 |
| 20260903084547 | 82 | 7 | 0.0 | 2.0 | 0.00 | 0.00 | 0.00 | 84 | 1012.7 |
| 20260903083056 | 82 | 0 | 0.0 | 2.0 | 0.00 | 0.00 | 0.00 | 84 | 1012.8 |
| 20260903081555 | 82 | 231 | 0.0 | 1.0 | 0.00 | 0.00 | 0.00 | 83 | 1012.8 |
| 20260903080051 | 82 | 315 | 0.0 | 1.0 | 0.00 | 0.00 | 0.00 | 83 | 1012.8 |
| 20260903074557 | 82 | 0 | 0.0 | 3.0 | 0.00 | 0.00 | 0.00 | 82 | 1013.0 |
| 20260903073057 | 82 | 0 | 0.0 | 1.0 | 0.00 | 0.00 | 0.00 | 81 | 1012.9 |
| 20260903071549 | 83 | 270 | 0.0 | 2.0 | 0.00 | 0.00 | 0.00 | 81 | 1013.1 |
| 20260903064556 | 83 | 0 | 0.0 | 1.0 | 0.00 | 0.00 | 0.00 | 79 | 1013.1 |
| 20260903063114 | 83 | 0 | 0.0 | 4.0 | 0.00 | 0.00 | 0.00 | 78 | 1013.1 |
| 20260903061559 | 84 | 0 | 0.0 | 1.0 | 0.00 | 0.00 | 0.00 | 76 | 1013.1 |
| 20260903060115 | 84 | 0 | 0.0 | 2.0 | 0.00 | 0.00 | 0.00 | 74 | 1013.1 |
| 20260903054555 | 84 | 238 | 0.0 | 1.0 | 0.00 | 0.00 | 0.00 | 73 | 1013.1 |
| 20260903053055 | 85 | 0 | 0.0 | 2.0 | 0.00 | 0.00 | 0.00 | 70 | 1013.1 |
| 20260903051559 | 85 | 258 | 0.0 | 2.0 | 0.00 | 0.00 | 0.00 | 69 | 1013.1 |
| 20260903050126 | 85 | 0 | 0.0 | 1.0 | 0.00 | 0.00 | 0.00 | 69 | 1013.0 |
| 20260903044555 | 85 | 0 | 0.0 | 1.0 | 0.00 | 0.00 | 0.00 | 68 | 1013.0 |
| 20260903043049 | 85 | 0 | 0.0 | 1.0 | 0.00 | 0.00 | 0.00 | 68 | 1012.8 |
| 20260903041600 | 85 | 0 | 0.0 | 1.0 | 0.00 | 0.00 | 0.00 | 70 | 1012.7 |
| 20260903040100 | 86 | 230 | 0.0 | 1.0 | 0.00 | 0.00 | 0.00 | 69 | 1012.5 |
| 20260903034553 | 86 | 0 | 0.0 | 1.0 | 0.00 | 0.00 | 0.00 | 68 | 1012.7 |
| 20260903033051 | 87 | 271 | 0.0 | 1.0 | 0.00 | 0.00 | 0.00 | 66 | 1012.5 |
| 20260903031545 | 88 | 0 | 0.0 | 2.0 | 0.00 | 0.00 | 0.00 | 63 | 1012.4 |
| 20260903030048 | 88 | 0 | 0.0 | 0.0 | 0.00 | 0.00 | 0.00 | 62 | 1012.0 |
| 20260903024550 | 88 | 0 | 0.0 | 0.0 | 0.00 | 0.00 | 0.00 | 62 | 1011.7 |
| 20260903023049 | 88 | 0 | 0.0 | 0.0 | 0.00 | 0.00 | 0.00 | 61 | 1011.4 |
| 20260903021548 | 89 | 0 | 0.0 | 0.0 | 0.00 | 0.00 | 0.00 | 62 | 1011.3 |
| 20260903020052 | 89 | 0 | 0.0 | 0.0 | 0.00 | 0.00 | 0.00 | 61 | 1011.0 |
| 20260903014554 | 90 | 0 | 0.0 | 1.0 | 0.00 | 0.00 | 0.00 | 58 | 1010.4 |
| 20260903013046 | 91 | 39 | 0.0 | 0.0 | 0.00 | 0.00 | 0.00 | 57 | 1010.2 |
| 20260903011608 | 92 | 0 | 0.0 | 1.0 | 0.00 | 0.00 | 0.00 | 55 | 1010.2 |
| 20260903010055 | 92 | 0 | 0.0 | 1.0 | 0.00 | 0.00 | 0.00 | 54 | 1010.1 |
| 20260903004550 | 93 | 0 | 0.0 | 1.0 | 0.00 | 0.00 | 0.00 | 53 | 1010.3 |
| 20260903003049 | 95 | 102 | 0.0 | 2.0 | 0.00 | 0.00 | 0.00 | 51 | 1010.4 |
| 20260903001545 | 97 | 98 | 0.0 | 2.0 | 0.00 | 0.00 | 0.00 | 48 | 1010.3 |
| 20260903000045 | 98 | 0 | 0.0 | 2.0 | 0.00 | 0.00 | 0.00 | 44 | 1010.3 |
| 20260902234554 | 100 | 0 | 0.0 | 1.0 | 0.00 | 0.00 | 0.00 | 42 | 1010.1 |
| 20260902233055 | 99 | 0 | 0.0 | 2.0 | 0.00 | 0.00 | 0.00 | 45 | 1010.2 |
| 20260902231559 | 99 | 0 | 0.0 | 1.0 | 0.00 | 0.00 | 0.00 | 45 | 1010.3 |
| 20260902230048 | 98 | 0 | 0.0 | 2.0 | 0.00 | 0.00 | 0.00 | 46 | 1010.2 |
| 20260902224601 | 98 | 0 | 0.0 | 1.0 | 0.00 | 0.00 | 0.00 | 47 | 1010.2 |
| 20260902223053 | 99 | 0 | 0.0 | 1.0 | 0.00 | 0.00 | 0.00 | 45 | 1010.2 |
| 20260902221550 | 100 | 0 | 0.0 | 2.0 | 0.00 | 0.00 | 0.00 | 44 | 1010.3 |
| 20260902220058 | 100 | 0 | 0.0 | 3.0 | 0.00 | 0.00 | 0.00 | 43 | 1010.6 |
| 20260902214559 | 100 | 127 | 0.0 | 2.0 | 0.00 | 0.00 | 0.00 | 46 | 1010.7 |
| 20260902213055 | 99 | 297 | 0.0 | 3.0 | 0.00 | 0.00 | 0.00 | 46 | 1010.8 |
| 20260902211553 | 99 | 0 | 0.0 | 4.0 | 0.00 | 0.00 | 0.00 | 46 | 1011.0 |
| 20260902210055 | 98 | 352 | 1.0 | 4.0 | 0.00 | 0.00 | 0.00 | 47 | 1011.2 |
| 20260902204554 | 99 | 309 | 0.0 | 2.0 | 0.00 | 0.00 | 0.00 | 46 | 1011.3 |
| 20260902203049 | 99 | 330 | 0.0 | 3.0 | 0.00 | 0.00 | 0.00 | 46 | 1011.4 |
| 20260902201549 | 99 | 347 | 0.0 | 3.0 | 0.00 | 0.00 | 0.00 | 46 | 1011.7 |
| 20260902194559 | 99 | 29 | 0.0 | 5.0 | 0.00 | 0.00 | 0.00 | 46 | 1012.2 |
| 20260902193053 | 100 | 31 | 1.0 | 5.0 | 0.00 | 0.00 | 0.00 | 46 | 1012.5 |
| 20260902191544 | 99 | 0 | 0.0 | 4.0 | 0.00 | 0.00 | 0.00 | 47 | 1012.8 |
| 20260902190057 | 98 | 0 | 0.0 | 1.0 | 0.00 | 0.00 | 0.00 | 48 | 1013.0 |
| 20260902184554 | 98 | 0 | 0.0 | 4.0 | 0.00 | 0.00 | 0.00 | 47 | 1013.1 |
| 20260902183053 | 97 | 0 | 0.0 | 3.0 | 0.00 | 0.00 | 0.00 | 48 | 1013.5 |
| 20260902181549 | 97 | 0 | 0.0 | 2.0 | 0.00 | 0.00 | 0.00 | 49 | 1013.6 |
| 20260902180108 | 96 | 13 | 1.0 | 6.0 | 0.00 | 0.00 | 0.00 | 49 | 1013.9 |
| 20260902174554 | 96 | 0 | 0.0 | 3.0 | 0.00 | 0.00 | 0.00 | 52 | 1014.2 |
| 20260902173050 | 95 | 248 | 0.0 | 2.0 | 0.00 | 0.00 | 0.00 | 54 | 1014.7 |
| 20260902171550 | 94 | 200 | 0.0 | 2.0 | 0.00 | 0.00 | 0.00 | 54 | 1014.8 |
| 20260902170053 | 94 | 80 | 0.0 | 2.0 | 0.00 | 0.00 | 0.00 | 55 | 1015.0 |
| 20260902164601 | 93 | 357 | 0.0 | 2.0 | 0.00 | 0.00 | 0.00 | 56 | 1015.1 |
| 20260902163103 | 92 | 0 | 0.0 | 2.0 | 0.00 | 0.00 | 0.00 | 60 | 1015.1 |